Flag for Austria Weather past 2 weeks in Scheibbs, Lower Austria, Austria

Now
56 °F

Cool.


Feels Like: 56 °F
Forecast: 40 / 65 °F
Wind: 3 mph from Northwest

Location: Amstetten

Current Time: May 27, 2015 at 4:19:27 PM

Latest Report: May 27, 2015 at 3:00 PM


Visibility: N/A

Pressure: 30.14 "Hg

Humidity: 62%

Dew point: 43 °F

Location of ScheibbsLocation

Historic Weather in Scheibbs — Graph

°F

Scheibbs temperature yesterday

Maximum temperature yesterday: 61 °F (at 4:00 PM)
Minimum temperature yesterday: 52 °F (at 11:00 PM)
Average temperature yesterday: 56 °F

Past Weeks' High & Low Weather Summary

 TemperatureHumidityPressure
High78 °F (May 12, 6:00 PM)100% (May 20, 9:00 AM)30.27 "Hg (May 20, 9:00 AM)
Low44 °F (May 18, 4:00 AM)35% (May 12, 4:00 PM)29.71 "Hg (May 18, 8:00 PM)
Average56 °F81%30.02 "Hg
* Reported May 12 3:00 PM — May 27 3:00 PM, Scheibbs, Weather by CustomWeather, © 2015

Note: Actual official high and low records may vary slightly from our data, if they occured in-between our weather recording intervals... More about our weather records

Advertising

Scheibbs weather history for previous 24 hours

 ConditionsComfort  
Time TempWeatherWind HumidityBarometerVisibility
3:00 PM
Wed, May 27
56 °FCool.3 mph62%30.14 "HgN/A
2:00 PM52 °FCool.2 mph73%30.16 "HgN/A
1:00 PM51 °FCool.5 mph80%30.16 "HgN/A
12:00 PM53 °FCool.3 mph73%30.15 "HgN/A
11:00 AM54 °FCool.2 mph66%30.15 "HgN/A
10:00 AM52 °FCool.2 mph72%30.15 "HgN/A
9:00 AM50 °FCool.2 mph79%30.16 "HgN/A
8:00 AM50 °FOvercast.2 mph79%30.15 "HgN/A
7:00 AM50 °FCool.1 mph85%30.14 "HgN/A
6:00 AM49 °FCool.1 mph90%30.13 "HgN/A
5:00 AM49 °FCool.1 mph90%30.12 "HgN/A
4:00 AM49 °FCool.2 mph88%30.11 "HgN/A
3:00 AM51 °FCool.2 mph78%30.09 "HgN/A
2:00 AM51 °FCool.2 mph89%30.08 "HgN/A
1:00 AM51 °FCool.3 mph85%30.08 "HgN/A
12:00 AM52 °FCool.3 mph84%30.07 "HgN/A
11:00 PM
Tue, May 26
52 °FCool.2 mph83%30.07 "HgN/A
10:00 PM53 °FCool.3 mph80%30.06 "HgN/A
9:00 PM55 °FCool.2 mph72%30.03 "HgN/A
8:00 PM55 °FCool.2 mph77%30.01 "HgN/A
7:00 PM57 °FCool.3 mph66%29.99 "HgN/A
6:00 PM59 °FCool.2 mph67%29.96 "HgN/A
5:00 PM59 °FCool.2 mph70%29.95 "HgN/A
4:00 PM61 °FCool.2 mph67%29.93 "HgN/A
Weather by CustomWeather, © 2015

See weather overviewHow to use our weather pages